GW5636 Weather Reports


time (UTC)temp
C
wind
direction
speed
KPH
gust
KPH
rain 1hr
cm
rain 24hr
cm
rain mn
cm
humidity
%
barometer
mb
20260507151530 11 185 1.6 3.2 0.00 0.00 0.00 77 1022.0
20260507151027 11 168 1.6 1.6 0.00 0.00 0.00 77 1022.0
20260507150524 10 190 0.0 4.8 0.00 0.00 0.00 77 1022.0
20260507150021 10 196 1.6 3.2 0.00 0.00 0.00 77 1022.1
20260507145516 10 203 0.0 3.2 0.00 0.00 0.00 78 1022.0
20260507145014 10 210 0.0 1.6 0.00 0.00 0.00 78 1022.0
20260507144510 10 167 0.0 1.6 0.00 0.00 0.00 78 1021.9
20260507144008 10 209 1.6 3.2 0.00 0.00 0.00 78 1022.0
20260507143505 10 193 0.0 1.6 0.00 0.00 0.00 79 1021.9
20260507143002 10 167 0.0 1.6 0.00 0.00 0.00 79 1021.9
20260507142457 10 228 0.0 1.6 0.00 0.00 0.00 78 1021.9
20260507141955 10 188 0.0 1.6 0.00 0.00 0.00 79 1021.9
20260507141450 10 224 0.0 3.2 0.00 0.00 0.00 79 1021.9
20260507140947 10 199 1.6 3.2 0.00 0.00 0.00 80 1021.8
20260507140444 10 262 1.6 3.2 0.00 0.00 0.00 80 1021.9
20260507135942 10 186 0.0 3.2 0.00 0.00 0.00 81 1021.9
20260507135438 10 220 0.0 1.6 0.00 0.00 0.00 81 1021.6
20260507134936 10 214 0.0 0.0 0.00 0.00 0.00 81 1021.5
20260507134432 10 239 0.0 1.6 0.00 0.00 0.00 81 1021.5
20260507133928 10 200 0.0 1.6 0.00 0.00 0.00 81 1021.4
20260507133424 10 201 0.0 1.6 0.00 0.00 0.00 82 1021.6
20260507132923 10 226 0.0 1.6 0.00 0.00 0.00 82 1021.4
20260507132418 10 229 0.0 0.0 0.00 0.00 0.00 82 1021.5
20260507131915 10 227 0.0 1.6 0.00 0.00 0.00 82 1021.7
20260507131413 10 230 0.0 1.6 0.00 0.00 0.00 82 1021.6
20260507130909 10 230 0.0 1.6 0.00 0.00 0.00 82 1021.5
20260507130406 10 233 0.0 1.6 0.00 0.00 0.00 83 1021.6
20260507125905 10 212 0.0 0.0 0.00 0.00 0.00 83 1021.7
20260507125402 10 212 0.0 1.6 0.00 0.00 0.00 84 1021.7
20260507124900 10 212 0.0 1.6 0.00 0.00 0.00 83 1021.7
20260507124355 10 213 0.0 0.0 0.00 0.00 0.00 83 1021.9
20260507123854 10 213 0.0 0.0 0.00 0.00 0.00 83 1021.7
20260507123351 10 224 0.0 0.0 0.00 0.00 0.00 83 1021.5
20260507122847 10 228 0.0 1.6 0.00 0.00 0.00 83 1021.4
20260507122343 10 272 0.0 0.0 0.00 0.00 0.00 83 1021.8
20260507121839 10 278 0.0 0.0 0.00 0.00 0.00 83 1021.6
20260507121335 10 291 0.0 1.6 0.00 0.00 0.00 83 1021.8
20260507120832 10 187 0.0 1.6 0.00 0.00 0.00 83 1021.7
20260507120328 10 187 0.0 0.0 0.00 0.00 0.00 84 1021.8
20260507115824 10 192 0.0 1.6 0.00 0.00 0.00 83 1021.8
20260507115320 10 192 0.0 0.0 0.00 0.00 0.00 84 1021.8
20260507114816 10 192 0.0 0.0 0.00 0.00 0.00 84 1021.7
20260507114313 10 192 0.0 0.0 0.00 0.00 0.00 84 1021.8
20260507113811 10 192 0.0 0.0 0.00 0.00 0.00 84 1022.1
20260507113308 10 192 0.0 1.6 0.00 0.00 0.00 84 1022.2
20260507112805 10 192 0.0 1.6 0.00 0.00 0.00 84 1022.2
20260507112306 10 192 0.0 0.0 0.00 0.00 0.00 84 1022.3
20260507111800 10 192 0.0 0.0 0.00 0.00 0.00 84 1022.0
20260507111256 10 192 0.0 0.0 0.00 0.00 0.00 84 1022.2
20260507110752 10 192 0.0 1.6 0.00 0.00 0.00 83 1022.1
20260507110249 10 200 0.0 1.6 0.00 0.00 0.00 83 1022.1
20260507105746 10 207 0.0 0.0 0.00 0.00 0.00 83 1022.1
20260507105241 10 218 0.0 0.0 0.00 0.00 0.00 83 1022.3
20260507104739 10 178 0.0 1.6 0.00 0.00 0.00 82 1022.4
20260507104236 10 182 0.0 0.0 0.00 0.00 0.00 83 1022.3
20260507103732 10 181 0.0 1.6 0.00 0.00 0.00 82 1022.2
20260507103228 10 279 0.0 1.6 0.00 0.00 0.00 83 1022.2
20260507102724 10 176 0.0 1.6 0.00 0.00 0.00 83 1022.1
20260507102221 10 263 0.0 0.0 0.00 0.00 0.00 83 1022.3
20260507101717 10 189 0.0 0.0 0.00 0.00 0.00 83 1022.1
20260507101212 10 190 0.0 1.6 0.00 0.00 0.00 83 1022.4
20260507100710 10 199 0.0 1.6 0.00 0.00 0.00 83 1022.2
20260507100208 11 180 1.6 3.2 0.00 0.00 0.00 82 1022.4
20260507095706 11 188 1.6 3.2 0.00 0.00 0.00 83 1022.6
20260507095202 11 188 1.6 4.8 0.00 0.00 0.00 83 1022.6
20260507094659 11 221 3.2 3.2 0.00 0.00 0.00 84 1022.6
20260507094155 11 191 1.6 3.2 0.00 0.00 0.00 84 1022.5
20260507093653 11 193 1.6 3.2 0.00 0.00 0.00 84 1022.6
20260507093152 11 182 1.6 3.2 0.00 0.00 0.00 84 1022.6
20260507092648 11 184 0.0 1.6 0.00 0.00 0.00 84 1022.7
20260507092145 11 214 0.0 1.6 0.00 0.00 0.00 84 1022.7
20260507091641 11 206 0.0 1.6 0.00 0.00 0.00 83 1022.7
20260507091137 11 184 1.6 1.6 0.00 0.00 0.00 83 1022.8
20260507090633 11 218 0.0 0.0 0.00 0.00 0.00 83 1022.7
20260507090131 11 214 0.0 1.6 0.00 0.00 0.00 82 1022.6
20260507085627 11 205 0.0 0.0 0.00 0.00 0.00 83 1022.8
20260507085124 11 250 0.0 0.0 0.00 0.00 0.00 83 1022.7
20260507084621 11 251 0.0 0.0 0.00 0.00 0.00 82 1022.9
20260507084118 11 253 0.0 1.6 0.00 0.00 0.00 83 1022.9
20260507083615 11 193 0.0 3.2 0.00 0.00 0.00 83 1023.0
20260507083112 11 224 0.0 0.0 0.00 0.00 0.00 83 1022.9
20260507082607 11 187 1.6 1.6 0.00 0.00 0.00 83 1023.0
20260507082104 11 205 0.0 0.0 0.00 0.00 0.00 84 1022.9
20260507081600 11 204 0.0 0.0 0.00 0.00 0.00 83 1022.9
20260507081057 11 204 0.0 0.0 0.00 0.00 0.00 84 1022.8
20260507080553 11 204 0.0 0.0 0.00 0.00 0.00 83 1022.6
20260507080050 11 210 1.6 1.6 0.00 0.00 0.00 83 1022.7
20260507075545 11 217 0.0 0.0 0.00 0.00 0.00 84 1022.8
20260507075041 11 217 0.0 0.0 0.00 0.00 0.00 84 1022.7
20260507074538 11 217 0.0 1.6 0.00 0.00 0.00 84 1022.9
20260507074037 11 218 0.0 1.6 0.00 0.00 0.00 83 1022.7
20260507073533 11 168 0.0 1.6 0.00 0.00 0.00 82 1022.8
20260507073029 11 179 0.0 3.2 0.00 0.00 0.00 82 1022.7
20260507072527 11 174 0.0 3.2 0.00 0.00 0.00 82 1022.8
20260507072024 11 187 0.0 1.6 0.00 0.00 0.00 83 1022.7
20260507071521 11 185 1.6 3.2 0.00 0.00 0.00 83 1022.7
20260507071018 11 161 3.2 3.2 0.00 0.00 0.00 82 1022.9
20260507070515 11 152 0.0 3.2 0.00 0.00 0.00 82 1022.8
20260507070013 11 162 3.2 4.8 0.00 0.00 0.00 82 1022.8
20260507065508 11 200 1.6 1.6 0.00 0.00 0.00 82 1022.6
20260507065005 11 205 1.6 1.6 0.00 0.00 0.00 82 1022.6
20260507064504 12 233 0.0 3.2 0.00 0.00 0.00 82 1022.9
20260507064001 12 239 0.0 1.6 0.00 0.00 0.00 82 1022.6
20260507063458 12 185 0.0 1.6 0.00 0.00 0.00 82 1022.8
20260507062955 12 183 1.6 1.6 0.00 0.00 0.00 82 1022.9
20260507062452 12 287 0.0 3.2 0.00 0.00 0.00 81 1023.1
20260507061949 12 199 0.0 1.6 0.00 0.00 0.00 82 1022.8
20260507061447 12 192 1.6 1.6 0.00 0.00 0.00 82 1022.8
20260507060946 12 193 0.0 1.6 0.00 0.00 0.00 81 1022.8
20260507060442 12 192 0.0 1.6 0.00 0.00 0.00 81 1022.8
20260507055938 12 192 1.6 1.6 0.00 0.00 0.00 81 1022.8
20260507055434 12 203 0.0 1.6 0.00 0.00 0.00 82 1022.5
20260507054931 12 214 0.0 0.0 0.00 0.00 0.00 82 1023.0
20260507054427 12 185 0.0 1.6 0.00 0.00 0.00 81 1022.6
20260507053924 12 114 0.0 3.2 0.00 0.00 0.00 80 1022.9
20260507053422 12 195 0.0 3.2 0.00 0.00 0.00 80 1022.7
20260507052920 12 199 0.0 3.2 0.00 0.00 0.00 80 1023.1
20260507052418 12 165 1.6 6.4 0.00 0.00 0.00 80 1022.7
20260507051914 12 154 3.2 4.8 0.00 0.00 0.00 80 1022.7
20260507051412 12 191 3.2 6.4 0.00 0.00 0.00 79 1022.9
20260507050909 13 189 1.6 11.3 0.00 0.00 0.00 79 1022.8
20260507050405 13 169 3.2 4.8 0.00 0.00 0.00 79 1023.0
20260507045902 13 209 1.6 3.2 0.00 0.00 0.00 79 1022.9
20260507045359 13 170 3.2 3.2 0.00 0.00 0.00 79 1022.7
20260507044856 13 159 6.4 6.4 0.00 0.00 0.00 79 1022.6
20260507044352 13 262 0.0 6.4 0.00 0.00 0.00 79 1022.7
20260507043848 13 189 3.2 4.8 0.00 0.00 0.00 79 1022.8
20260507043345 13 161 1.6 4.8 0.00 0.00 0.00 80 1022.6
20260507042841 13 184 3.2 3.2 0.00 0.00 0.00 79 1022.5
20260507042337 13 174 3.2 9.7 0.00 0.00 0.00 79 1022.5
20260507041834 13 201 0.0 1.6 0.00 0.00 0.00 80 1022.5
20260507041331 13 198 0.0 1.6 0.00 0.00 0.00 80 1022.5
20260507040828 14 164 0.0 4.8 0.00 0.00 0.00 79 1022.4
20260507040324 14 199 3.2 6.4 0.00 0.00 0.00 79 1022.5
20260507035820 14 225 1.6 3.2 0.00 0.00 0.00 79 1022.4
20260507035316 14 185 3.2 4.8 0.00 0.00 0.00 79 1022.4
20260507034814 15 224 0.0 6.4 0.00 0.00 0.00 79 1022.2
20260507034310 15 249 0.0 3.2 0.00 0.00 0.00 78 1022.2
20260507033809 15 194 3.2 4.8 0.00 0.00 0.00 78 1022.1
20260507033306 15 212 1.6 3.2 0.00 0.00 0.00 78 1022.0
20260507032803 15 199 1.6 4.8 0.00 0.00 0.00 78 1021.8
20260507032259 15 195 1.6 3.2 0.00 0.00 0.00 78 1022.0
20260507031755 15 205 3.2 3.2 0.00 0.00 0.00 78 1021.9
20260507031252 15 207 0.0 3.2 0.00 0.00 0.00 77 1021.5
20260507030749 15 187 1.6 1.6 0.00 0.00 0.00 77 1021.5
20260507030246 16 182 0.0 1.6 0.00 0.00 0.00 77 1021.4
20260507025743 16 194 0.0 1.6 0.00 0.00 0.00 76 1021.6
20260507025240 16 196 0.0 1.6 0.00 0.00 0.00 75 1021.4
20260507024739 16 194 0.0 1.6 0.00 0.00 0.00 76 1021.4
20260507024236 16 159 1.6 4.8 0.00 0.00 0.00 75 1021.4
20260507023731 16 182 0.0 6.4 0.00 0.00 0.00 75 1021.4
20260507023228 16 179 3.2 4.8 0.00 0.00 0.00 75 1021.4
20260507022726 16 184 1.6 4.8 0.00 0.00 0.00 75 1021.4
20260507022221 16 173 0.0 3.2 0.00 0.00 0.00 74 1021.6
20260507021718 17 157 3.2 3.2 0.00 0.00 0.00 74 1021.1
20260507021213 17 187 3.2 6.4 0.00 0.00 0.00 74 1021.2
20260507020712 17 250 0.0 4.8 0.00 0.00 0.00 73 1021.2
20260507020208 17 229 1.6 4.8 0.00 0.00 0.00 73 1021.2
20260507015706 17 176 1.6 4.8 0.00 0.00 0.00 72 1021.4
20260507015203 18 161 3.2 3.2 0.00 0.00 0.00 71 1021.5
20260507014659 18 192 0.0 3.2 0.00 0.00 0.00 71 1021.4
20260507014155 18 59 0.0 1.6 0.00 0.00 0.00 69 1021.1
20260507013652 18 23 1.6 3.2 0.00 0.00 0.00 70 1021.4
20260507013149 18 292 0.0 1.6 0.00 0.00 0.00 67 1020.9
20260507012647 18 216 0.0 0.0 0.00 0.00 0.00 67 1021.1
20260507012142 18 337 0.0 0.0 0.00 0.00 0.00 69 1021.1
20260507011641 18 336 0.0 0.0 0.00 0.00 0.00 69 1021.1
20260507011137 18 337 0.0 1.6 0.00 0.00 0.00 67 1021.2
20260507010631 19 337 0.0 0.0 0.00 0.00 0.00 67 1021.2
20260507010128 19 336 0.0 1.6 0.00 0.00 0.00 65 1021.4
20260507005625 20 342 1.6 3.2 0.00 0.00 0.00 63 1021.6
20260507005121 20 108 3.2 4.8 0.00 0.00 0.00 62 1021.5
20260507004618 20 12 4.8 4.8 0.00 0.00 0.00 61 1021.7
20260507004116 20 80 1.6 3.2 0.00 0.00 0.00 62 1021.2
20260507003612 20 77 4.8 4.8 0.00 0.00 0.00 60 1021.5
20260507003107 20 276 0.0 4.8 0.00 0.00 0.00 62 1021.5
20260507002604 20 195 3.2 4.8 0.00 0.00 0.00 62 1021.5
20260507002059 20 63 4.8 6.4 0.00 0.00 0.00 62 1021.5
20260507001556 20 10 1.6 3.2 0.00 0.00 0.00 65 1021.5
20260507001054 19 284 1.6 4.8 0.00 0.00 0.00 65 1021.2
20260507000550 20 233 1.6 3.2 0.00 0.00 0.00 61 1021.2
20260507000045 20 98 0.0 1.6 0.00 0.00 0.00 59 1021.6
20260506235543 20 351 1.6 1.6 0.00 0.00 0.00 63 1021.5
20260506235038 19 217 1.6 9.7 0.00 0.00 0.00 65 1021.6
20260506234536 19 202 4.8 6.4 0.00 0.00 0.00 64 1021.7
20260506234033 18 325 0.0 1.6 0.00 0.00 0.00 69 1021.6
20260506233530 18 199 1.6 6.4 0.00 0.00 0.00 67 1021.5
20260506233027 18 18 3.2 3.2 0.00 0.00 0.00 68 1021.6
20260506232523 18 339 0.0 3.2 0.00 0.00 0.00 66 1021.7
20260506232018 19 13 0.0 3.2 0.00 0.00 0.00 65 1021.7
20260506231516 18 15 0.0 1.6 0.00 0.00 0.00 68 1021.6
20260506231014 18 50 1.6 4.8 0.00 0.00 0.00 70 1021.6
20260506230510 18 201 0.0 3.2 0.00 0.00 0.00 70 1021.8
20260506230008 18 44 1.6 4.8 0.00 0.00 0.00 70 1022.0
20260506225504 18 175 3.2 4.8 0.00 0.00 0.00 70 1021.9
20260506225000 18 163 4.8 6.4 0.00 0.00 0.00 69 1021.8
20260506224457 18 273 1.6 4.8 0.00 0.00 0.00 67 1021.5
20260506223954 18 161 4.8 6.4 0.00 0.00 0.00 69 1021.7
20260506223450 18 230 1.6 3.2 0.00 0.00 0.00 68 1022.2
20260506222947 18 235 1.6 3.2 0.00 0.00 0.00 69 1021.9
20260506222444 18 335 1.6 3.2 0.00 0.00 0.00 70 1022.0
20260506221940 18 26 3.2 3.2 0.00 0.00 0.00 69 1022.1
20260506221437 18 342 1.6 3.2 0.00 0.00 0.00 68 1022.0
20260506220935 18 187 0.0 1.6 0.00 0.00 0.00 70 1022.0
20260506220431 18 2 4.8 6.4 0.00 0.00 0.00 70 1021.9
20260506215927 18 259 1.6 4.8 0.00 0.00 0.00 68 1022.0
20260506215424 17 205 4.8 9.7 0.00 0.00 0.00 72 1022.1
20260506214919 17 340 1.6 4.8 0.00 0.00 0.00 72 1022.0
20260506214417 17 227 0.0 1.6 0.00 0.00 0.00 71 1022.2
20260506213914 17 357 0.0 3.2 0.00 0.00 0.00 75 1022.2
20260506213412 17 237 3.2 6.4 0.00 0.00 0.00 74 1022.3
20260506212909 17 196 1.6 1.6 0.00 0.00 0.00 75 1022.2
20260506212405 17 175 1.6 3.2 0.00 0.00 0.00 74 1022.4
20260506211859 16 182 0.0 1.6 0.00 0.00 0.00 74 1022.5
20260506211356 16 11 0.0 1.6 0.00 0.00 0.00 76 1022.4
20260506210853 16 326 3.2 3.2 0.00 0.00 0.00 75 1022.5
20260506210350 17 341 3.2 4.8 0.00 0.00 0.00 72 1022.3
20260506205847 17 355 0.0 3.2 0.00 0.00 0.00 73 1022.3
20260506205343 16 154 3.2 3.2 0.00 0.00 0.00 75 1022.2
20260506204840 16 66 4.8 4.8 0.00 0.00 0.00 76 1022.4
20260506204337 16 113 0.0 3.2 0.00 0.00 0.00 77 1022.2
20260506203835 16 16 3.2 4.8 0.00 0.00 0.00 77 1022.6
20260506203332 15 62 1.6 3.2 0.00 0.00 0.00 79 1022.4
20260506202829 15 27 3.2 3.2 0.00 0.00 0.00 79 1022.6
20260506202326 15 46 1.6 3.2 0.00 0.00 0.00 79 1022.7
20260506201822 15 323 1.6 1.6 0.00 0.00 0.00 79 1022.6
20260506201320 15 192 1.6 1.6 0.00 0.00 0.00 80 1022.5
20260506200816 15 78 3.2 3.2 0.00 0.00 0.00 79 1022.9
20260506200312 15 213 0.0 1.6 0.00 0.00 0.00 81 1022.8
20260506195809 15 123 0.0 3.2 0.00 0.00 0.00 80 1022.8
20260506195306 15 25 3.2 3.2 0.00 0.00 0.00 80 1022.7
20260506194803 15 355 1.6 3.2 0.00 0.00 0.00 80 1022.7
20260506194259 15 46 3.2 4.8 0.00 0.00 0.00 80 1022.5
20260506193757 15 71 1.6 3.2 0.00 0.00 0.00 82 1022.7
20260506193254 15 46 1.6 1.6 0.00 0.00 0.00 81 1022.6
20260506192750 15 82 1.6 3.2 0.00 0.00 0.00 80 1022.7
20260506192247 15 253 0.0 1.6 0.00 0.00 0.00 82 1022.5
20260506191743 15 256 1.6 3.2 0.00 0.00 0.00 81 1022.6
20260506191240 15 0 1.6 3.2 0.00 0.00 0.00 82 1022.7
20260506190737 14 18 3.2 3.2 0.00 0.00 0.00 83 1022.3
20260506190233 14 45 1.6 3.2 0.00 0.00 0.00 82 1022.8
20260506185731 14 256 1.6 3.2 0.00 0.00 0.00 83 1022.8
20260506185227 13 348 1.6 1.6 0.00 0.00 0.00 84 1022.6
20260506184725 13 18 1.6 1.6 0.00 0.00 0.00 84 1022.8
20260506184222 13 73 0.0 3.2 0.00 0.00 0.00 84 1022.7
20260506183719 13 334 1.6 4.8 0.00 0.00 0.00 84 1022.3
20260506183214 13 12 1.6 1.6 0.00 0.00 0.00 84 1022.5
20260506182712 13 5 4.8 4.8 0.00 0.00 0.00 83 1022.6
20260506182209 13 24 3.2 3.2 0.00 0.00 0.00 84 1022.4
20260506181707 13 21 4.8 4.8 0.00 0.00 0.00 84 1022.5
20260506181204 13 36 3.2 3.2 0.00 0.00 0.00 83 1022.6
20260506180701 13 23 1.6 3.2 0.00 0.00 0.00 84 1022.7
20260506180157 14 353 3.2 4.8 0.00 0.00 0.00 83 1022.6
20260506175653 13 268 0.0 3.2 0.00 0.00 0.00 83 1022.4
20260506175150 13 10 1.6 3.2 0.00 0.00 0.00 84 1022.4
20260506174649 13 52 1.6 1.6 0.00 0.00 0.00 84 1022.3
20260506174145 13 21 3.2 4.8 0.00 0.00 0.00 85 1022.4
20260506173643 13 213 1.6 1.6 0.00 0.00 0.00 86 1022.3
20260506173134 12 3 1.6 3.2 0.00 0.00 0.00 86 1022.6
20260506172631 13 8 1.6 4.8 0.00 0.00 0.00 85 1022.7
20260506172127 13 45 3.2 4.8 0.00 0.00 0.00 86 1022.4
20260506171625 13 12 3.2 4.8 0.00 0.00 0.00 85 1022.2
20260506171122 13 55 1.6 3.2 0.00 0.00 0.00 86 1022.1
20260506170619 13 14 3.2 3.2 0.00 0.00 0.00 86 1022.2
20260506170116 13 44 3.2 4.8 0.00 0.00 0.00 86 1022.3
20260506165615 13 345 1.6 1.6 0.00 0.00 0.00 86 1022.2
20260506165110 13 24 3.2 3.2 0.00 0.00 0.00 86 1022.3
20260506164608 13 34 3.2 3.2 0.00 0.00 0.00 86 1022.3
20260506164105 13 39 3.2 3.2 0.00 0.00 0.00 86 1022.2
20260506163600 12 22 1.6 3.2 0.00 0.00 0.00 87 1022.0
20260506163057 12 48 3.2 4.8 0.00 0.00 0.00 87 1022.0
20260506162553 13 50 3.2 4.8 0.00 0.00 0.00 86 1022.3
20260506162051 13 5 1.6 3.2 0.00 0.00 0.00 85 1021.7
20260506161548 13 85 3.2 9.7 0.00 0.00 0.00 87 1021.6
20260506161045 12 58 3.2 6.4 0.00 0.00 0.00 88 1021.2
20260506160543 12 27 4.8 4.8 0.00 0.00 0.00 89 1021.6
20260506160039 12 350 1.6 3.2 0.00 0.00 0.00 90 1021.6
20260506155538 12 351 1.6 3.2 0.00 0.00 0.00 90 1022.1
20260506153715 12 355 1.6 1.6 0.00 0.00 0.00 90 1022.3
20260506153212 12 352 1.6 1.6 0.00 0.00 0.00 90 1022.4
20260506152709 12 10 1.6 1.6 0.00 0.00 0.00 90 1022.3
20260506152206 12 24 1.6 4.8 0.00 0.00 0.00 90 1022.2
20260506151706 12 341 1.6 3.2 0.00 0.00 0.00 90 1022.4